Weather History for Dayton Wright, OH

Change the Weather History Date:

Wednesday, June 26, 2013

  Actual Average (KFFO) Record (KFFO)
Temperature  
Mean Temperature 24 °C -  
Max Temperature 29 °C 27 °C 35 °C (2005)
Min Temperature 20 °C 15 °C 10 °C (2012)
Cooling Degree Days 11    
Growing Degree Days 26 (Base 50)    
Moisture  
Dew Point 20 °C    
Average Humidity 82    
Maximum Humidity 100    
Minimum Humidity 61    
Precipitation  
Precipitation 11.94 mm - - ()
Sea Level Pressure  
Sea Level Pressure 1011 hPa    
Wind  
Wind Speed 13 km/h (SW)    
Max Wind Speed 23 km/h    
Max Gust Speed 61 km/h    
Visibility 14 kilometers    
Events Rain , Thunderstorm    
Averages and records for this station are not official NWS values.
T = Trace of Precipitation, MM = Missing Value Source: NWS Daily Summary

Daily Weather History Graph

Daily Weather History Graph

Search for Another Location

Airport:

Trip Planner

Search our weather history database for the weather conditions in past years. The results will help you decide how hot, cold, wet, or windy it might be!

Date:

Astronomy

Jun. 26, 2013 Rise Set
Actual Time 6:11 AM EDT 9:08 PM EDT
Civil Twilight 5:38 AM EDT 9:41 PM EDT
Nautical Twilight 4:57 AM EDT 10:22 PM EDT
Astronomical Twilight 4:09 AM EDT 11:09 PM EDT
Moon 11:32 PM EDT (6/26) 10:00 AM EDT (6/26)
Length of Visible Light 16h 02m
Length of Day
14h 57m
Waning Gibbous, 85% of the Moon is Illuminated
Jun 26
Waning Gibbous
Jun 30
Last Quarter
Jul 8
New
Jul 15
First Quarter
Jul 22
Full

Hourly Weather History & Observations

Time (EDT) Temp. Heat Index Dew Point Humidity Pressure Visibility Wind Dir Wind Speed Gust Speed Precip Events Conditions
12:41 AM 27.0 °C 28.9 °C 21.0 °C 70% 1013.4 hPa 16.1 km SSW 14.8 km/h / 4.1 m/s - N/A Thunderstorm Thunderstorm
12:53 AM 26.7 °C 28.4 °C 21.1 °C 71% 1012.5 hPa 16.1 km SSW 13.0 km/h / 3.6 m/s - N/A Thunderstorm Thunderstorm
1:07 AM 26.0 °C - 22.0 °C 78% 1013.1 hPa 16.1 km SSW 11.1 km/h / 3.1 m/s - N/A   Partly Cloudy
1:29 AM 26.0 °C - 22.0 °C 78% 1013.1 hPa 16.1 km SSW 20.4 km/h / 5.7 m/s 29.6 km/h / 8.2 m/s N/A Thunderstorm Partly Cloudy
1:36 AM 23.0 °C - 19.0 °C 78% 1013.8 hPa 2.8 km West 16.7 km/h / 4.6 m/s 61.1 km/h / 17.0 m/s 4.3 mm Rain , Thunderstorm Heavy Thunderstorms and Rain
1:45 AM 22.0 °C - 18.0 °C 78% 1013.4 hPa 6.4 km WSW 13.0 km/h / 3.6 m/s - 4.6 mm Rain , Thunderstorm Thunderstorms and Rain
1:53 AM 21.7 °C - 18.3 °C 81% 1012.2 hPa 12.9 km SW 9.3 km/h / 2.6 m/s - 4.6 mm Rain , Thunderstorm Light Thunderstorms and Rain
2:27 AM 21.0 °C - 19.0 °C 88% 1013.8 hPa 16.1 km SSW 7.4 km/h / 2.1 m/s - 0.3 mm Rain Light Rain
2:53 AM 21.7 °C - 18.9 °C 84% 1012.5 hPa 16.1 km West 9.3 km/h / 2.6 m/s - 0.3 mm   Partly Cloudy
3:53 AM 21.1 °C - 19.4 °C 90% 1012.7 hPa 12.9 km SSW 5.6 km/h / 1.5 m/s - N/A   Scattered Clouds
4:45 AM 21.0 °C - 18.0 °C 83% 1014.1 hPa 16.1 km WSW 11.1 km/h / 3.1 m/s - 0.0 mm Rain , Thunderstorm Light Rain
4:53 AM 21.1 °C - 18.3 °C 84% 1013.2 hPa 16.1 km WSW 11.1 km/h / 3.1 m/s - 0.3 mm Rain , Thunderstorm Light Rain
4:56 AM 21.0 °C - 18.0 °C 83% 1014.1 hPa 16.1 km WSW 18.5 km/h / 5.1 m/s - 0.0 mm Rain , Thunderstorm Light Rain
5:17 AM 21.0 °C - 18.0 °C 83% 1014.1 hPa 16.1 km WSW 9.3 km/h / 2.6 m/s - 0.3 mm Rain Light Rain
5:53 AM 20.0 °C - 18.9 °C 93% 1013.6 hPa 9.7 km SW 9.3 km/h / 2.6 m/s - 1.0 mm Rain Rain
6:53 AM 20.0 °C - 18.9 °C 93% 1012.3 hPa 9.7 km South 11.1 km/h / 3.1 m/s - 2.5 mm Rain Light Rain
7:05 AM 20.0 °C - 19.0 °C 94% 1012.4 hPa 8.0 km South 13.0 km/h / 3.6 m/s - 0.0 mm Rain Light Rain
7:53 AM 20.6 °C - 19.4 °C 93% 1013.2 hPa 16.1 km WSW 14.8 km/h / 4.1 m/s - 0.0 mm   Mostly Cloudy
8:53 AM 21.1 °C - 19.4 °C 90% 1012.7 hPa 16.1 km West 11.1 km/h / 3.1 m/s - N/A   Clear
9:53 AM 22.8 °C - 18.9 °C 79% 1012.8 hPa 16.1 km SW 14.8 km/h / 4.1 m/s - N/A   Partly Cloudy
10:53 AM 23.9 °C - 19.4 °C 76% 1012.4 hPa 16.1 km SSW 14.8 km/h / 4.1 m/s - N/A   Partly Cloudy
11:53 AM 25.0 °C - 19.4 °C 71% 1012.7 hPa 16.1 km SW 9.3 km/h / 2.6 m/s - N/A   Clear
12:53 PM 26.7 °C 28.2 °C 20.0 °C 67% 1012.1 hPa 16.1 km SSW 13.0 km/h / 3.6 m/s - N/A   Clear
1:53 PM 27.2 °C 28.9 °C 20.6 °C 67% 1011.7 hPa 16.1 km SW 11.1 km/h / 3.1 m/s - N/A   Clear
2:30 PM 28.0 °C 30.2 °C 21.0 °C 66% 1012.1 hPa 16.1 km SW 11.1 km/h / 3.1 m/s - N/A   Mostly Cloudy
2:45 PM 28.0 °C 30.2 °C 21.0 °C 66% 1011.7 hPa 16.1 km WSW 13.0 km/h / 3.6 m/s - N/A   Mostly Cloudy
2:53 PM 28.9 °C 31.6 °C 21.7 °C 65% 1010.6 hPa 16.1 km SW 14.8 km/h / 4.1 m/s - N/A   Scattered Clouds
3:41 PM 28.0 °C 30.2 °C 21.0 °C 66% 1010.7 hPa 16.1 km SW 20.4 km/h / 5.7 m/s 29.6 km/h / 8.2 m/s N/A Thunderstorm Mostly Cloudy
3:53 PM 27.8 °C 29.7 °C 20.6 °C 65% 1010.4 hPa 16.1 km WSW 18.5 km/h / 5.1 m/s 31.5 km/h / 8.7 m/s N/A Thunderstorm Thunderstorm
4:08 PM 24.0 °C - 19.0 °C 73% 1011.1 hPa 16.1 km WNW 14.8 km/h / 4.1 m/s 35.2 km/h / 9.8 m/s N/A Thunderstorm Thunderstorm
4:39 PM 27.0 °C 28.2 °C 19.0 °C 61% 1009.7 hPa 16.1 km SW 5.6 km/h / 1.5 m/s - N/A   Partly Cloudy
4:53 PM 26.7 °C 28.3 °C 20.6 °C 69% 1009.1 hPa 16.1 km Calm Calm - 0.0 mm Rain Light Rain
5:53 PM 25.0 °C - 20.6 °C 76% 1009.2 hPa 2.4 km SW 22.2 km/h / 6.2 m/s 44.4 km/h / 12.3 m/s 2.5 mm Rain , Thunderstorm Thunderstorms and Rain
6:02 PM 24.0 °C - 22.0 °C 89% 1009.7 hPa 6.4 km SSW 14.8 km/h / 4.1 m/s - 0.0 mm Rain , Thunderstorm Light Thunderstorms and Rain
6:26 PM 24.0 °C - 22.0 °C 89% 1009.7 hPa 14.5 km South 20.4 km/h / 5.7 m/s 25.9 km/h / 7.2 m/s 0.0 mm Thunderstorm Thunderstorm
6:44 PM 23.0 °C - 21.0 °C 88% 1009.4 hPa 14.5 km SSW 11.1 km/h / 3.1 m/s - 0.3 mm Rain Light Rain
6:53 PM 22.8 °C - 21.1 °C 90% 1008.9 hPa 9.7 km SW 5.6 km/h / 1.5 m/s - 0.3 mm Rain , Thunderstorm Light Rain
7:07 PM 22.0 °C - 21.0 °C 94% 1009.7 hPa 11.3 km SSW 16.7 km/h / 4.6 m/s - 0.5 mm Rain Light Rain
7:53 PM 21.7 °C - 20.0 °C 90% 1008.9 hPa 16.1 km SSE 7.4 km/h / 2.1 m/s - 0.5 mm   Clear
8:51 PM 21.0 °C - 20.0 °C 94% 1009.0 hPa 16.1 km South 9.3 km/h / 2.6 m/s - 0.0 mm   Mostly Cloudy
8:53 PM 21.1 °C - 20.0 °C 93% 1008.6 hPa 16.1 km South 11.1 km/h / 3.1 m/s - 0.0 mm   Mostly Cloudy
9:08 PM 21.0 °C - 20.0 °C 94% 1009.0 hPa 16.1 km South 11.1 km/h / 3.1 m/s - N/A   Mostly Cloudy
9:19 PM 21.0 °C - 20.0 °C 94% 1009.0 hPa 16.1 km SSW 13.0 km/h / 3.6 m/s - N/A   Overcast
9:53 PM 21.1 °C - 20.6 °C 97% 1008.3 hPa 12.9 km South 7.4 km/h / 2.1 m/s - N/A   Overcast
10:17 PM 21.0 °C - 21.0 °C 100% 1008.7 hPa 11.3 km Calm Calm - N/A   Overcast
10:53 PM 21.1 °C - 20.0 °C 93% 1008.2 hPa 9.7 km South 13.0 km/h / 3.6 m/s - N/A   Overcast
11:53 PM 21.1 °C - 20.0 °C 93% 1008.7 hPa 9.7 km SSW 11.1 km/h / 3.1 m/s - N/A   Overcast